Terminal Aerodrome Forecast
Issued by NWS

Home | Current Version | Previous Version | Text Only | Print | Product List | Glossary On
Versions: 1 2 3 4 5 6 7 8 9 10 11 12 13 14
000
FTUS45 KTFX 290523
TAFHLN
TAF
KHLN 290523Z 2906/3006 32008KT P6SM VCSH SCT020 OVC035
      TEMPO 2906/2908 -SHRA BKN018
     FM290900 VRB05KT 6SM BR SCT025 OVC050
     FM291600 VRB05KT P6SM SCT050
     FM292300 VRB06KT P6SM VCSH SCT040 BKN070=

USA.gov is the U.S. government's official web portal to all federal, state and local government web resources and services.